Flag for Morocco Weather past 2 weeks in Marrakech, Morocco

Now
64 °F

Sunny.


Feels Like: 64 °F
Forecast: 47 / 70 °F
Wind: 2 mph from North

Location: Marrakech Airport

Current Time: Dec 20, 2014 at 12:29:47 PM

Latest Report: Dec 20, 2014 at 12:00 PM


Visibility: 10 mi

Pressure: 30.39 "Hg

Humidity: 64%

Dew point: 52 °F

Location of MarrakechLocation

Historic Weather in Marrakech — Graph

°F

Marrakech temperature yesterday

Maximum temperature yesterday: 70 °F (at 3:00 PM)
Minimum temperature yesterday: 45 °F (at 5:30 AM)
Average temperature yesterday: 57 °F

Past Weeks' High & Low Weather Summary

 TemperatureHumidityPressure
High73 °F (Dec 10, 2:30 PM)100% (Dec 6, 1:00 AM)30.42 "Hg (Dec 6, 1:00 AM)
Low43 °F (Dec 8, 6:30 AM)20% (Dec 9, 3:00 PM)29.95 "Hg (Dec 13, 4:00 PM)
Average54 °F79%30.25 "Hg
* Reported Dec 5 11:00 AM — Dec 20 11:30 AM, Marrakech, Weather by CustomWeather, © 2014

Note: Actual official high and low records may vary slightly from our data, if they occured in-between our weather recording intervals... More about our weather records

Advertising

Marrakech weather history for previous 24 hours

 ConditionsComfort  
Time TempWeatherWind HumidityBarometerVisibility
11:30 AM
Dec 20
63 °FMild.3 mph68%30.42 "HgN/A
11:00 AM61 °FSunny.1 mph68%30.42 "Hg10 mi
10:00 AM57 °FClear.2 mph77%30.42 "Hg6 mi
9:30 AM55 °FSunny.No wind82%30.42 "Hg10 mi
9:00 AM52 °FSunny.No wind94%30.39 "Hg10 mi
8:30 AM48 °FSunny.No wind94%30.39 "Hg10 mi
8:00 AM46 °FSunny.No wind93%30.39 "Hg10 mi
7:30 AM46 °FSunny.No wind87%30.36 "Hg10 mi
7:00 AM46 °FSunny.No wind93%30.36 "Hg10 mi
6:30 AM45 °FSunny.No wind100%30.36 "Hg10 mi
6:00 AM46 °FClear.No wind93%30.36 "Hg10 mi
5:30 AM46 °FClear.No wind93%30.33 "Hg10 mi
5:00 AM46 °FClear.No wind100%30.33 "Hg10 mi
4:30 AM46 °FCool.No wind93%30.33 "HgN/A
4:00 AM46 °FClear.No wind100%30.36 "Hg10 mi
3:30 AM46 °FClear.3 mph100%30.36 "Hg10 mi
3:00 AM46 °FClear.3 mph100%30.33 "Hg10 mi
2:30 AM46 °FCool.5 mph100%30.33 "HgN/A
2:00 AM46 °FCool.3 mph100%30.36 "HgN/A
1:30 AM48 °FClear.5 mph94%30.36 "Hg10 mi
1:00 AM48 °FClear.3 mph100%30.36 "Hg10 mi
12:30 AM48 °FCool.N/A100%30.36 "HgN/A
12:00 AM48 °FClear.2 mph100%30.36 "Hg10 mi
11:30 PM
Dec 19
50 °FClear.2 mph94%30.39 "Hg10 mi
11:00 PM52 °FClear.3 mph94%30.39 "Hg4 mi
10:30 PM54 °FClear.3 mph88%30.39 "Hg4 mi
10:00 PM54 °FClear.No wind88%30.39 "Hg4 mi
9:30 PM54 °FClear.1 mph88%30.39 "Hg4 mi
9:00 PM55 °FClear.2 mph82%30.39 "Hg4 mi
8:30 PM57 °FClear.3 mph82%30.39 "Hg5 mi
8:00 PM59 °FClear.No wind72%30.39 "Hg10 mi
7:30 PM59 °FClear.No wind68%30.36 "Hg6 mi
7:00 PM59 °FClear.2 mph68%30.36 "Hg5 mi
6:30 PM61 °FClear.2 mph59%30.36 "Hg10 mi
6:00 PM64 °FClear.2 mph49%30.36 "Hg6 mi
5:30 PM66 °FClear.3 mph43%30.33 "Hg10 mi
5:00 PM66 °FPassing clouds.5 mph46%30.33 "HgN/A
4:30 PM68 °FPassing clouds.5 mph49%30.33 "HgN/A
4:00 PM68 °FPassing clouds.5 mph46%30.33 "HgN/A
3:30 PM70 °FSunny.2 mph50%30.33 "Hg10 mi
3:00 PM70 °FPassing clouds.3 mph50%30.33 "HgN/A
2:30 PM68 °FPassing clouds.3 mph49%30.33 "HgN/A
2:00 PM68 °FSunny.No wind53%30.33 "Hg10 mi
1:30 PM68 °FSunny.No wind53%30.36 "Hg10 mi
1:00 PM66 °FSunny.2 mph56%30.36 "Hg10 mi
12:30 PM64 °FSunny.2 mph56%30.39 "Hg10 mi
12:00 PM63 °FPassing clouds.3 mph68%30.39 "HgN/A
Weather by CustomWeather, © 2014

See weather overviewHow to use our weather pages